一网星座-0382星 (ONEWEB-0382 )

导读

ONEWEB-0382是英国OneWeb星座下的一颗低轨宽带通信卫星,于2021年10月14日发射入轨。OneWeb由英国政府主导投资,旨在打造覆盖全球的低轨道卫星互联网系统,星座整体部署在1200公里近地轨道,具备低延迟通信优势。 该卫星的成功入轨,进一步完善了OneWeb全球宽带星座的组网进程,可为偏远地区提供高速互联网接入服务,同时低轨通信卫星也存在潜在军事应用潜力,该卫星也是英国依托商业航天布局太空基础设施的重要组成部分。

基本信息
目录编号:
49308
目录名称:
ONEWEB-0382
国际标识:
2021-090AF
轨道中心:
EARTH
卫星名称:
一网星座-0382星
卫星全名:
一网星座-0382星 (ONEWEB-0382 )
卫星状态:
在轨 (已飞行1704 天)
发射日期:
2021-10-14 UTC
国别 :
英国 (GB)
星等 :
--
轨道信息
数据来源 国际轨道数据 AOE轨道数据
星历时间 2026-06-14T03:29:32+0800
16小时前
查看轨道信息
2026-06-14T04:00:00+0800
15小时前
查看轨道信息
半长轴 7559.92km 7559.909km
偏心率 0.0002048 0.0001421
轨道倾角 87.919° 87.919°
近地点辐角 92.381° 42.137°
升交点赤经 275.107° 275.098°
平近点角 267.756° 58.569°
近地点 1180.234km 1180.697km
远地点 1183.332km 1182.847km
周期 109.027分钟 109.027分钟
每日圈数 13.207693 13.207723
详细信息
平衡模式:
三轴稳定
覆盖范围:
全球
运营商:
一网卫星公司
运营商所在国:
英国
制造商(研发单位):
一网卫星公司
制造商所在国:
英国
使用方式:
暂无
卫星简介
OneWeb卫星网络由648颗重约125公斤的微型卫星组成,运行在1200公里的轨道上。 每颗卫星都能够提供至少每秒8千兆位的吞吐量,以使用其高吞吐量的Ku频段有效载荷为家庭和移动平台提供互联网接入。该卫星仍在工作。
2D轨道图
3D轨道图
轨道高度分析图
轨道倾角分析图
轨道综合分析图
查看轨道综合分析图